| time (UTC) | temp F | wind direction | speed MPH | gust MPH | rain 1hr in | rain 24hr in | rain mn in | humidity % | barometer mb |
| 20260510233106 | 51 | 59 | 0.0 | 0.0 | 0.00 | 0.01 | 0.00 | 25 | 1010.5 |
| 20260510231555 | 50 | 59 | 0.0 | 0.0 | 0.00 | 0.01 | 0.00 | 30 | 1010.6 |
| 20260510230025 | 50 | 59 | 0.0 | 0.0 | 0.00 | 0.01 | 0.00 | 34 | 1010.4 |
| 20260510224557 | 50 | 59 | 0.0 | 0.0 | 0.00 | 0.01 | 0.00 | 42 | 1010.4 |
| 20260510223034 | 51 | 59 | 0.0 | 0.0 | 0.00 | 0.01 | 0.00 | 51 | 1010.1 |
| 20260510221515 | 53 | 59 | 0.0 | 0.0 | 0.00 | 0.01 | 0.00 | 57 | 1010.3 |
| 20260510220026 | 54 | 59 | 0.0 | 0.0 | 0.00 | 0.01 | 0.00 | 64 | 1010.1 |
| 20260510214508 | 55 | 57 | 0.0 | 0.0 | 0.00 | 0.01 | 0.01 | 67 | 1010.1 |
| 20260510213101 | 56 | 64 | 0.0 | 0.0 | 0.00 | 0.01 | 0.01 | 69 | 1010.5 |
| 20260510211537 | 56 | 59 | 0.0 | 0.0 | 0.00 | 0.01 | 0.01 | 68 | 1010.5 |
| 20260510210021 | 56 | 47 | 0.0 | 0.0 | 0.00 | 0.01 | 0.01 | 63 | 1011.1 |
| 20260510204547 | 56 | 302 | 0.0 | 0.0 | 0.00 | 0.01 | 0.01 | 61 | 1011.1 |
| 20260510203016 | 55 | 48 | 0.0 | 0.0 | 0.00 | 0.01 | 0.01 | 53 | 1010.9 |
| 20260510201505 | 55 | 51 | 0.0 | 0.0 | 0.00 | 0.01 | 0.01 | 56 | 1010.5 |
| 20260510200101 | 56 | 51 | 0.0 | 0.0 | 0.00 | 0.01 | 0.01 | 62 | 1010.3 |
| 20260510194522 | 56 | 51 | 0.0 | 0.0 | 0.00 | 0.01 | 0.01 | 66 | 1010.1 |
| 20260510193100 | 56 | 26 | 0.0 | 0.0 | 0.00 | 0.01 | 0.01 | 67 | 1010.1 |
| 20260510191522 | 57 | 63 | 0.0 | 0.0 | 0.00 | 0.01 | 0.01 | 69 | 1010.1 |
| 20260510190057 | 57 | 52 | 0.0 | 0.0 | 0.00 | 0.01 | 0.01 | 69 | 1010.2 |
| 20260510184542 | 56 | 54 | 0.0 | 0.0 | 0.00 | 0.11 | 0.01 | 67 | 1010.1 |
| 20260510183106 | 55 | 69 | 0.0 | 0.0 | 0.00 | 0.11 | 0.01 | 69 | 1009.6 |
| 20260510181555 | 55 | 69 | 0.0 | 0.0 | 0.00 | 0.11 | 0.01 | 70 | 1009.6 |
| 20260510180045 | 56 | 21 | 0.0 | 0.0 | 0.00 | 0.11 | 0.01 | 72 | 1009.6 |
| 20260510174515 | 57 | 86 | 0.0 | 0.0 | 0.00 | 0.17 | 0.01 | 72 | 1009.7 |
| 20260510173106 | 61 | 349 | 0.0 | 0.0 | 0.00 | 0.17 | 0.01 | 65 | 1009.0 |
| 20260510171603 | 66 | 5 | 0.0 | 0.0 | 0.00 | 0.17 | 0.01 | 57 | 1008.5 |
| 20260510170038 | 68 | 307 | 0.0 | 0.0 | 0.00 | 0.17 | 0.01 | 52 | 1008.0 |
| 20260510164533 | 70 | 259 | 0.0 | 0.0 | 0.00 | 0.23 | 0.01 | 43 | 1007.6 |
| 20260510163007 | 72 | 320 | 0.0 | 0.0 | 0.00 | 0.23 | 0.01 | 44 | 1007.5 |
| 20260510161602 | 71 | 323 | 0.0 | 0.0 | 0.00 | 0.23 | 0.01 | 43 | 1007.5 |
| 20260510160106 | 72 | 295 | 0.0 | 0.0 | 0.00 | 0.23 | 0.01 | 45 | 1007.5 |
| 20260510154541 | 72 | 293 | 0.0 | 0.0 | 0.00 | 0.23 | 0.01 | 44 | 1007.6 |
| 20260510153025 | 72 | 34 | 0.0 | 0.0 | 0.00 | 0.23 | 0.01 | 45 | 1007.7 |
| 20260510151506 | 72 | 294 | 0.0 | 0.0 | 0.00 | 0.23 | 0.01 | 46 | 1007.8 |
| 20260510150031 | 71 | 28 | 0.0 | 0.0 | 0.00 | 0.23 | 0.01 | 47 | 1008.1 |
| 20260510144512 | 71 | 36 | 0.0 | 0.0 | 0.00 | 0.23 | 0.01 | 48 | 1008.3 |
| 20260510143052 | 71 | 310 | 0.0 | 0.0 | 0.00 | 0.23 | 0.01 | 49 | 1008.3 |
| 20260510141530 | 71 | 341 | 0.0 | 0.0 | 0.00 | 0.23 | 0.01 | 50 | 1008.5 |
| 20260510140021 | 71 | 322 | 0.0 | 0.0 | 0.00 | 0.23 | 0.01 | 51 | 1008.7 |
| 20260510134508 | 70 | 360 | 0.0 | 0.0 | 0.00 | 0.23 | 0.01 | 54 | 1008.8 |
| 20260510133041 | 70 | 340 | 0.0 | 0.0 | 0.00 | 0.23 | 0.01 | 57 | 1009.3 |
| 20260510131526 | 69 | 54 | 0.0 | 0.0 | 0.00 | 0.23 | 0.01 | 59 | 1009.5 |
| 20260510130021 | 68 | 35 | 0.0 | 0.0 | 0.00 | 0.23 | 0.01 | 61 | 1009.7 |
| 20260510124612 | 67 | 67 | 0.0 | 0.0 | 0.00 | 0.23 | 0.01 | 63 | 1009.8 |
| 20260510123014 | 66 | 320 | 0.0 | 0.0 | 0.00 | 0.23 | 0.01 | 64 | 1010.0 |
| 20260510121550 | 67 | 306 | 0.0 | 0.0 | 0.00 | 0.23 | 0.01 | 64 | 1010.1 |
| 20260510120032 | 68 | 9 | 0.0 | 0.0 | 0.00 | 0.23 | 0.01 | 67 | 1010.2 |
| 20260510114611 | 68 | 259 | 0.0 | 0.0 | 0.00 | 0.23 | 0.01 | 68 | 1010.4 |
| 20260510113105 | 67 | 315 | 0.0 | 0.0 | 0.00 | 0.23 | 0.01 | 68 | 1010.5 |
| 20260510111514 | 65 | 11 | 0.0 | 0.0 | 0.00 | 0.23 | 0.01 | 70 | 1010.7 |
| 20260510110055 | 66 | 33 | 0.0 | 0.0 | 0.00 | 0.23 | 0.01 | 70 | 1010.7 |
| 20260510104537 | 66 | 348 | 0.0 | 0.0 | 0.00 | 0.23 | 0.01 | 70 | 1010.8 |
| 20260510103013 | 66 | 271 | 0.0 | 0.0 | 0.00 | 0.23 | 0.01 | 65 | 1010.8 |
| 20260510101559 | 65 | 341 | 0.0 | 0.0 | 0.00 | 0.23 | 0.01 | 53 | 1011.0 |
| 20260510100116 | 64 | 254 | 0.0 | 0.0 | 0.00 | 0.23 | 0.01 | 12 | 1011.1 |
| 20260510094517 | 60 | 259 | 0.0 | 0.0 | 0.00 | 0.23 | 0.01 | 1011.2 | |
| 20260510093037 | 58 | 239 | 0.0 | 0.0 | 0.00 | 0.23 | 0.01 | 1011.4 | |
| 20260510091557 | 56 | 218 | 0.0 | 0.0 | 0.00 | 0.23 | 0.01 | 1011.4 | |
| 20260510090131 | 55 | 251 | 0.0 | 0.0 | 0.00 | 0.23 | 0.01 | 1011.5 | |
| 20260510084511 | 54 | 249 | 0.0 | 0.0 | 0.00 | 0.23 | 0.01 | 1011.6 | |
| 20260510083034 | 53 | 227 | 0.0 | 0.0 | 0.00 | 0.23 | 0.01 | 1011.7 | |
| 20260510081601 | 52 | 360 | 0.0 | 0.0 | 0.00 | 0.23 | 0.01 | 1011.6 | |
| 20260510080008 | 51 | 280 | 0.0 | 0.0 | 0.00 | 0.23 | 0.01 | 1011.6 | |
| 20260510074508 | 51 | 278 | 0.0 | 0.0 | 0.00 | 0.23 | 0.01 | 1011.5 | |
| 20260510073016 | 50 | 277 | 0.0 | 0.0 | 0.00 | 0.23 | 0.01 | 1011.6 | |
| 20260510071541 | 50 | 277 | 0.0 | 0.0 | 0.00 | 0.23 | 0.01 | 1011.5 | |
| 20260510070045 | 49 | 278 | 0.0 | 0.0 | 0.00 | 0.23 | 0.01 | 1011.4 | |
| 20260510064558 | 49 | 277 | 0.0 | 0.0 | 0.00 | 0.23 | 0.01 | 1011.4 | |
| 20260510063049 | 48 | 278 | 0.0 | 0.0 | 0.00 | 0.23 | 0.01 | 1011.4 | |
| 20260510061602 | 48 | 278 | 0.0 | 0.0 | 0.00 | 0.23 | 0.01 | 1011.3 | |
| 20260510060108 | 48 | 277 | 0.0 | 0.0 | 0.00 | 0.23 | 0.01 | 100 | 1011.4 |
| 20260510054513 | 48 | 277 | 0.0 | 0.0 | 0.01 | 0.23 | 0.01 | 100 | 1011.5 |
| 20260510053026 | 47 | 277 | 0.0 | 0.0 | 0.01 | 0.23 | 0.01 | 100 | 1011.2 |
| 20260510051548 | 47 | 272 | 0.0 | 0.0 | 0.01 | 0.23 | 0.01 | 100 | 1011.2 |
| 20260510050038 | 47 | 272 | 0.0 | 0.0 | 0.01 | 0.23 | 0.01 | 1 | 1011.1 |
| 20260510044616 | 47 | 272 | 0.0 | 0.0 | 0.00 | 0.22 | 0.00 | 1 | 1011.1 |
| 20260510043055 | 46 | 272 | 0.0 | 0.0 | 0.00 | 0.22 | 0.00 | 1 | 1011.3 |
| 20260510041506 | 46 | 272 | 0.0 | 0.0 | 0.00 | 0.22 | 0.00 | 2 | 1011.4 |
| 20260510040027 | 45 | 272 | 0.0 | 0.0 | 0.00 | 0.22 | 0.00 | 2 | 1011.3 |
| 20260510034546 | 46 | 272 | 0.0 | 0.0 | 0.00 | 0.22 | 0.00 | 2 | 1011.1 |
| 20260510033058 | 44 | 272 | 0.0 | 0.0 | 0.00 | 0.22 | 0.00 | 3 | 1011.0 |
| 20260510031507 | 45 | 272 | 0.0 | 0.0 | 0.00 | 0.22 | 0.00 | 3 | 1011.4 |
| 20260510030018 | 45 | 272 | 0.0 | 0.0 | 0.00 | 0.22 | 0.00 | 3 | 1011.5 |
| 20260510024525 | 46 | 272 | 0.0 | 0.0 | 0.00 | 0.22 | 0.00 | 3 | 1011.5 |
| 20260510023020 | 47 | 272 | 0.0 | 0.0 | 0.00 | 0.22 | 0.00 | 3 | 1011.7 |
| 20260510021528 | 47 | 272 | 0.0 | 0.0 | 0.00 | 0.22 | 0.00 | 3 | 1011.7 |
| 20260510020039 | 48 | 272 | 0.0 | 0.0 | 0.00 | 0.22 | 0.00 | 3 | 1011.7 |
| 20260510014550 | 48 | 272 | 0.0 | 0.0 | 0.00 | 0.22 | 0.00 | 2 | 1011.6 |
| 20260510013101 | 49 | 272 | 0.0 | 0.0 | 0.00 | 0.22 | 0.00 | 2 | 1011.6 |
| 20260510011505 | 50 | 272 | 0.0 | 0.0 | 0.00 | 0.22 | 0.00 | 2 | 1011.6 |
| 20260510010024 | 50 | 272 | 0.0 | 0.0 | 0.00 | 0.22 | 0.00 | 2 | 1011.7 |
| 20260510004531 | 51 | 272 | 0.0 | 0.0 | 0.00 | 0.22 | 0.00 | 2 | 1011.8 |
| 20260510003053 | 51 | 272 | 0.0 | 0.0 | 0.00 | 0.22 | 0.00 | 2 | 1012.1 |
| 20260510001552 | 52 | 272 | 0.0 | 0.0 | 0.00 | 0.22 | 0.00 | 2 | 1012.0 |
| 20260510000015 | 52 | 272 | 0.0 | 0.0 | 0.00 | 0.22 | 0.00 | 2 | 1012.1 |
| 20260509234549 | 52 | 272 | 0.0 | 0.0 | 0.00 | 0.22 | 0.00 | 2 | 1012.5 |